Location: Goettingen
(51.5300°N, 9.9433°E)
Time: 15:43:15
(UTC+02:00)

ISS - Pass Details

Date: 27 September 2022
Orbit: 414 x 417 km, 51.6° (Epoch: 28 September)

Event Time Altitude Azimuth Distance (km) Brightness Sun altitude
Rises 20:30:39 0° 280° (W) 2,362 2.1 -13.7°
Reaches altitude 10° 20:32:45 10° 279° (W) 1,498 0.5 -14.0°
Maximum altitude 20:36:06 75° 195° (SSW) 438 -3.8 -14.5°
Enters shadow 20:37:31 32° 115° (ESE) 743 -3.1 -14.7°
